Regional Weather Roundup
Issued by NWS

Home | Current Version | Previous Version | Graphics & Text | Print | Product List | Glossary Off
Versions: 1 2 3 4 5 6 7 8 9 10 11 12 13 14 15 16 17 18 19 20 21 22 23 24 25 26 27 28 29 30 31 32 33 34 35 36 37 38 39 40 41 42 43 44 45 46 47 48 49 50

000
ASUS43 KTOP 032208
RWRKS

WEATHER ROUNDUP FOR KANSAS
NATIONAL WEATHER SERVICE GOODLAND KS
500 PM CDT TUE MAY 03 2016

NOTE:  "FAIR" INDICATES FEW OR NO CLOUDS BELOW 12,000 FEET WITH NO
SIGNIFICANT WEATHER AND/OR OBSTRUCTIONS TO VISIBILITY.

KSZ001>006-013>018-027>032-041>047-032300-
NORTHWEST KANSAS

CITY           SKY/WX    TMP DP  RH WIND       PRES   REMARKS
GOODLAND       SUNNY     67  35  30 N16G24    30.09F
HAYS           MOSUNNY   66  43  42 NW9G16    30.03F
HILL CITY      MOSUNNY   69  42  37 NW12      30.05F
RUSSELL        SUNNY     69  41  36 NW10      30.01S
$$

KSZ061>065-074>080-084>089-032300-
SOUTHWEST KANSAS

CITY           SKY/WX    TMP DP  RH WIND       PRES   REMARKS
DODGE CITY     MOSUNNY   66  39  37 N15G21    30.05F
ELKHART          N/A     66  35  31 NW18        N/A
GARDEN CITY    MOSUNNY   66  38  35 N15       30.07S
GREAT BEND     SUNNY     68  45  42 NW10      30.02S
LIBERAL        PTSUNNY   66  41  39 N16       30.07F
PRATT          CLOUDY    64  39  40 W6        30.02S
$$

KSZ066>073-081>083-090>101-032300-
SOUTHEAST KANSAS

CITY           SKY/WX    TMP DP  RH WIND       PRES   REMARKS
CHANUTE        PTSUNNY   68  44  42 CALM      30.01F
COFFEYVILLE    MOSUNNY   71  44  37 VRB3      30.01F
HUTCHINSON     LGT RAIN  70  42  36 SW12      29.99F
MEDICINE LODGE   N/A     75  39  27 VRB3      29.99F
NEWTON         CLOUDY    68  43  40 SW10      30.02F
PARSONS        MOSUNNY   69  45  41 SW6       30.02F
WICHITA INTL   PTSUNNY   72  42  34 SW12G18   30.00F
WICHITA JABRA  PTSUNNY   69  42  37 SW10      30.00F
WICHITA MCCONL MOSUNNY   69  42  37 W9        30.00F
WINFIELD       MOSUNNY   70  44  39 SW10      30.33R
$$

KSZ007>012-019>026-033>040-048>060-102>105-032300-
NORTHEAST KANSAS

CITY           SKY/WX    TMP DP  RH WIND       PRES   REMARKS
CONCORDIA      MOSUNNY   68  42  38 NW6       29.99F
EMPORIA        PTSUNNY   71  41  33 VRB7      29.98F
LAWRENCE       MOSUNNY   68  43  40 NW9       29.98F
MANHATTAN      PTSUNNY   73  39  29 W6        29.97F
MARYSVILLE     MOSUNNY   70  43  37 NW12      29.98F
OLATHE IND     MOSUNNY   69  42  37 SW7       29.99F
OLATHE EXE     MOSUNNY   67  40  37 W10       29.99F
SALINA         SUNNY     75  41  29 W10       29.98F
TOPEKA BILLARD MOSUNNY   71  42  35 W9        29.97F
TOPEKA FORBES  MOSUNNY   72  44  36 NW8       29.98F
$$



USA.gov is the U.S. government's official web portal to all federal, state and local government web resources and services.